Tracking 26325 objects as of 29-Nov-2022
HD Live streaming from Space Station
objects crossing your sky now

COSMOS 1375 DEB

Track COSMOS 1375 DEB now!
10-day predictions


NORAD ID: 16376
Int'l Code: 1982-055Q
Perigee: 905.7 km
Apogee: 941.3 km
Inclination: 65.8 °
Period: 103.3 minutes
Semi major axis: 7294 km
RCS: 0.0298 m2 (small)
Launch date: June 6, 1982
Source: Commonwealth of Independent States (former USSR) (CIS)
Launch site: PLESETSK MISSILE AND SPACE COMPLEX (PKMTR)

Note: This is SATELLITE DEBRIS
aabbcc
Your satellite tracking list
Your tracking list is empty




NASA's NSSDC Master Catalog

Two Line Element Set (TLE):
1 16376U 82055Q   22332.60264610  .00000440  00000-0  39917-3 0  9990
2 16376  65.8295  19.6589 0024381 329.4263 198.5974 13.93502990879160
Source of the keplerian elements: AFSPC